FW0887 Weather Reports


time (UTC)temp
C
wind
direction
speed
KPH
gust
KPH
rain 1hr
cm
rain 24hr
cm
rain mn
cm
humidity
%
barometer
mb
20260510124605 22 55 3.2 8.0 0.00 0.00 0.00 42 1009.9
20260510123059 22 300 1.6 9.7 0.00 0.00 0.00 47 1010.1
20260510121557 22 192 0.0 9.7 0.00 0.00 0.00 46 1010.4
20260510120054 22 217 4.8 11.3 0.00 0.00 0.00 45 1010.7
20260510114551 21 360 3.2 8.0 0.00 0.00 0.00 41 1010.8
20260510113048 21 273 1.6 12.9 0.00 0.00 0.00 49 1011.0
20260510111604 21 153 1.6 14.5 0.00 0.00 0.00 44 1011.3
20260510110043 21 51 4.8 14.5 0.00 0.00 0.00 47 1011.5
20260510104540 20 124 1.6 12.9 0.00 0.00 0.00 48 1011.7
20260510103038 20 76 3.2 14.5 0.00 0.00 0.00 50 1011.8
20260510101537 20 30 3.2 9.7 0.00 0.00 0.00 53 1011.7
20260510100034 20 134 6.4 17.7 0.00 0.00 0.00 54 1012.1
20260510094532 20 73 4.8 12.9 0.00 0.00 0.00 57 1012.2
20260510093047 19 200 3.2 11.3 0.00 0.00 0.00 62 1012.4
20260510091528 18 144 6.4 14.5 0.00 0.00 0.00 58 1012.6
20260510090039 18 165 3.2 12.9 0.00 0.00 0.00 61 1012.7
20260510084522 18 165 1.6 9.7 0.00 0.00 0.00 61 1012.9
20260510083017 17 194 1.6 9.7 0.00 0.00 0.00 63 1012.9
20260510081514 17 300 0.0 3.2 0.00 0.00 0.00 66 1012.9
20260510080012 17 300 0.0 4.8 0.00 0.00 0.00 66 1013.3
20260510074508 16 264 0.0 4.8 0.00 0.00 0.00 67 1013.4
20260510073006 16 221 1.6 3.2 0.00 0.00 0.00 68 1013.6
20260510071504 15 211 0.0 3.2 0.00 0.00 0.00 69 1013.6
20260510070059 15 211 0.0 4.8 0.00 0.00 0.00 71 1013.7
20260510064605 14 225 0.0 4.8 0.00 0.00 0.00 71 1013.9
20260510063053 13 328 0.0 3.2 0.00 0.00 0.00 72 1014.0
20260510061551 13 350 0.0 3.2 0.00 0.00 0.00 77 1013.9
20260510060046 12 351 0.0 0.0 0.00 0.00 0.00 79 1014.3
20260510054542 10 351 0.0 3.2 0.00 0.00 0.00 84 1014.4
20260510053041 8 19 0.0 3.2 0.00 0.00 0.00 86 1014.6
20260510051540 7 17 0.0 4.8 0.00 0.00 0.00 86 1014.6
20260510050043 7 17 0.0 3.2 0.00 0.00 0.00 86 1014.8
20260510044551 6 338 0.0 0.0 0.00 0.00 0.00 85 1014.8
20260510043037 6 342 0.0 0.0 0.00 0.00 0.00 85 1014.9
20260510041535 6 343 0.0 0.0 0.00 0.00 0.00 85 1014.8
20260510040035 7 343 0.0 1.6 0.00 0.00 0.00 85 1014.8
20260510034532 7 343 0.0 0.0 0.00 0.03 0.00 84 1014.7
20260510033029 7 342 0.0 1.6 0.00 0.03 0.00 83 1014.9
20260510031529 7 342 0.0 1.6 0.00 0.03 0.00 83 1014.9
20260510030035 7 342 0.0 0.0 0.00 0.03 0.00 83 1014.9
20260510024526 7 341 0.0 4.8 0.00 0.03 0.00 83 1014.9
20260510023025 8 342 0.0 0.0 0.00 0.03 0.00 82 1015.1
20260510021528 8 341 0.0 4.8 0.00 0.03 0.00 82 1015.0
20260510020026 8 341 0.0 1.6 0.00 0.03 0.00 81 1015.2
20260510014520 8 342 0.0 1.6 0.00 0.03 0.00 80 1015.2
20260510013018 8 342 0.0 3.2 0.00 0.03 0.00 80 1015.1
20260510011515 9 341 0.0 3.2 0.00 0.03 0.00 79 1015.4
20260510010016 9 342 0.0 0.0 0.00 0.03 0.00 78 1015.5
20260510004511 10 342 0.0 1.6 0.00 0.03 0.00 77 1015.5
20260510003109 10 342 0.0 1.6 0.00 0.03 0.00 76 1015.6
20260510001504 10 341 0.0 1.6 0.00 0.03 0.00 76 1015.9
20260510000002 11 341 0.0 3.2 0.00 0.03 0.00 74 1016.0
20260509234637 11 340 0.0 3.2 0.00 0.03 0.00 73 1016.1
20260509233056 12 103 0.0 1.6 0.00 0.03 0.00 72 1016.1
20260509231553 12 104 0.0 1.6 0.00 0.03 0.00 71 1016.4
20260509230052 12 104 0.0 6.4 0.00 0.03 0.00 70 1016.5
20260509224549 12 305 1.6 4.8 0.00 0.03 0.00 69 1016.4
20260509223047 13 117 3.2 12.9 0.00 0.03 0.00 68 1016.3
20260509221545 13 121 3.2 16.1 0.00 0.03 0.00 68 1016.2
20260509220043 13 5 1.6 17.7 0.00 0.03 0.00 68 1016.2
20260509214543 13 103 8.0 17.7 0.00 0.03 0.03 67 1016.3
20260509213047 13 117 6.4 19.3 0.00 0.03 0.03 67 1016.2
20260509211550 13 138 3.2 17.7 0.00 0.03 0.03 66 1016.6
20260509210041 13 76 4.8 16.1 0.00 0.03 0.03 66 1016.7
20260509204539 14 122 3.2 24.1 0.00 0.03 0.03 66 1016.7
20260509203053 14 148 6.4 17.7 0.00 0.03 0.03 65 1016.7
20260509201539 14 84 4.8 14.5 0.00 0.03 0.03 64 1016.6
20260509200041 15 118 4.8 14.5 0.00 0.03 0.03 63 1016.5
20260509194539 15 109 4.8 14.5 0.00 0.03 0.03 63 1016.6
20260509193036 15 138 1.6 11.3 0.00 0.03 0.03 63 1016.7
20260509191539 15 163 1.6 6.4 0.00 0.03 0.03 63 1016.6
20260509190035 15 117 1.6 11.3 0.00 0.03 0.03 63 1016.3
20260509184535 16 155 0.0 8.0 0.00 0.03 0.03 62 1016.1
20260509183034 16 111 1.6 9.7 0.00 0.03 0.03 61 1016.0
20260509181537 17 147 1.6 8.0 0.00 0.03 0.03 59 1015.8
20260509180034 18 35 1.6 8.0 0.00 0.03 0.03 58 1015.8
20260509174531 18 105 1.6 8.0 0.00 0.03 0.03 57 1015.8
20260509173030 19 126 1.6 9.7 0.00 0.03 0.03 54 1015.8
20260509171532 20 59 3.2 9.7 0.00 0.03 0.03 51 1016.0
20260509170029 20 36 0.0 4.8 0.00 0.03 0.03 53 1016.0
20260509164528 20 32 1.6 4.8 0.00 0.03 0.03 53 1016.1
20260509163027 20 38 0.0 4.8 0.00 0.03 0.03 51 1016.1
20260509161526 21 47 1.6 6.4 0.00 0.03 0.03 50 1016.2
20260509160027 21 30 1.6 8.0 0.00 0.03 0.03 50 1016.3
20260509154524 21 348 1.6 9.7 0.00 0.03 0.03 51 1016.4
20260509153023 21 59 1.6 6.4 0.00 0.03 0.03 50 1016.5
20260509151522 21 317 1.6 6.4 0.00 0.03 0.03 50 1016.6
20260509150021 21 289 1.6 8.0 0.00 0.03 0.03 50 1016.6
20260509144529 21 34 1.6 8.0 0.00 0.03 0.03 51 1016.8
20260509143020 21 57 1.6 6.4 0.00 0.03 0.03 52 1017.0
20260509141516 21 332 0.0 4.8 0.00 0.03 0.03 55 1017.2
20260509140012 20 37 0.0 6.4 0.00 0.03 0.03 57 1017.3
20260509134510 20 287 1.6 9.7 0.00 0.03 0.03 57 1017.5
20260509133012 19 230 1.6 4.8 0.00 0.03 0.03 61 1017.7
20260509131503 18 254 1.6 4.8 0.00 0.03 0.03 63 1017.9
20260509130002 18 254 1.6 4.8 0.00 0.03 0.03 61 1018.3